Weather History for NW Arkansas Airport, AR

Change the Weather History Date:

Tuesday, January 22, 2013

  Actual Average Record
Temperature  
Mean Temperature 33 °F -  
Max Temperature 45 °F - - ()
Min Temperature 21 °F - - ()
Degree Days  
Heating Degree Days 32    
Moisture  
Dew Point 20 °F    
Average Humidity 64    
Maximum Humidity 78    
Minimum Humidity 44    
Precipitation  
Precipitation 0.00 in - - ()
Sea Level Pressure  
Sea Level Pressure 30.28 in    
Wind  
Wind Speed 5 mph (SE)    
Max Wind Speed 10 mph    
Max Gust Speed -    
Visibility 10 miles    
Events      
T = Trace of Precipitation, MM = Missing Value Source: NWS Daily Summary

Daily Weather History Graph

Daily Weather History Graph

Search for Another Location

Airport:

Trip Planner

Search our weather history database for the weather conditions in past years. The results will help you decide how hot, cold, wet, or windy it might be!

Date:

Astronomy

Jan. 22, 2013 Rise Set
Actual Time 7:24 AM CST 5:33 PM CST
Civil Twilight 6:57 AM CST 6:01 PM CST
Nautical Twilight 6:25 AM CST 6:32 PM CST
Astronomical Twilight 5:55 AM CST 7:02 PM CST
Moon 1:58 PM CST (1/22) 3:45 AM CST (1/22)
Length of Visible Light 11h 03m
Length of Day
10h 08m
Waxing Gibbous, 83% of the Moon is Illuminated
Jan 22
Waxing Gibbous
Jan 26
Full
Feb 3
Last Quarter
Feb 10
New
Feb 17
First Quarter

Hourly Weather History & Observations

Time (CST) Temp. Windchill Dew Point Humidity Pressure Visibility Wind Dir Wind Speed Gust Speed Precip Events Conditions
12:53 AM 21.9 °F 17.2 °F 16.0 °F 78% 30.33 in 10.0 mi NE 3.5 mph - N/A   Clear
1:53 AM 21.9 °F 17.2 °F 16.0 °F 78% 30.31 in 10.0 mi ENE 3.5 mph - N/A   Clear
2:53 AM 21.9 °F 17.2 °F 16.0 °F 78% 30.30 in 10.0 mi East 3.5 mph - N/A   Clear
3:53 AM 21.9 °F 15.7 °F 16.0 °F 78% 30.30 in 10.0 mi ENE 4.6 mph - N/A   Clear
4:53 AM 21.9 °F 15.7 °F 15.1 °F 75% 30.30 in 10.0 mi ENE 4.6 mph - N/A   Clear
5:53 AM 21.9 °F 15.7 °F 15.1 °F 75% 30.31 in 10.0 mi East 4.6 mph - N/A   Clear
6:53 AM 21.9 °F 15.7 °F 15.1 °F 75% 30.32 in 10.0 mi East 4.6 mph - N/A   Clear
7:53 AM 21.9 °F 17.2 °F 15.1 °F 75% 30.33 in 10.0 mi ESE 3.5 mph - N/A   Clear
8:53 AM 26.1 °F 20.5 °F 18.0 °F 71% 30.34 in 10.0 mi East 4.6 mph - N/A   Partly Cloudy
9:53 AM 30.0 °F 23.2 °F 19.9 °F 66% 30.33 in 10.0 mi SSE 6.9 mph - N/A   Scattered Clouds
10:53 AM 35.1 °F 27.9 °F 21.0 °F 57% 30.31 in 10.0 mi South 9.2 mph - N/A   Scattered Clouds
11:53 AM 37.9 °F 35.5 °F 21.9 °F 53% 30.33 in 10.0 mi SSW 3.5 mph - N/A   Overcast
12:53 PM 41.0 °F 38.0 °F 23.0 °F 49% 30.29 in 10.0 mi Variable 4.6 mph - N/A   Partly Cloudy
1:53 PM 43.0 °F 39.5 °F 24.1 °F 47% 30.25 in 10.0 mi SSW 5.8 mph - N/A   Clear
2:53 PM 45.0 °F 42.6 °F 24.1 °F 44% 30.25 in 10.0 mi Variable 4.6 mph - N/A   Clear
3:53 PM 44.1 °F 40.8 °F 24.1 °F 45% 30.24 in 10.0 mi South 5.8 mph - N/A   Partly Cloudy
4:53 PM 43.0 °F 37.2 °F 24.1 °F 47% 30.22 in 10.0 mi South 10.4 mph - N/A   Clear
5:53 PM 37.9 °F 32.7 °F 24.1 °F 57% 30.23 in 10.0 mi South 6.9 mph - N/A   Clear
6:53 PM 37.0 °F 33.3 °F 23.0 °F 57% 30.24 in 10.0 mi South 4.6 mph - N/A   Clear
7:53 PM 34.0 °F 28.8 °F 23.0 °F 64% 30.25 in 10.0 mi South 5.8 mph - N/A   Clear
8:53 PM 33.1 °F 28.7 °F 23.0 °F 66% 30.25 in 10.0 mi South 4.6 mph - N/A   Clear
9:53 PM 32.0 °F 26.4 °F 21.9 °F 66% 30.26 in 10.0 mi South 5.8 mph - N/A   Clear
10:53 PM 30.9 °F 27.5 °F 21.9 °F 69% 30.26 in 10.0 mi South 3.5 mph - N/A   Clear
11:53 PM 28.9 °F 23.9 °F 21.9 °F 75% 30.27 in 10.0 mi SSE 4.6 mph - N/A   Clear